1506528000.24,48249,19.25,74794.8,2.69,-29.07,-29.39,0,*7E
1506528001.47,48250,19.25,74790.8,2.65,-29.13,-29.45,0,*74
1506528002.69,48251,19.25,74788.5,2.67,-29.07,-29.45,0,*72
1506528003.95,48252,19.25,74794.0,2.65,-29.13,-29.51,0,*73
1506528005.15,48253,19.25,74790.3,2.65,-29.07,-29.45,0,*72
1506528006.38,48254,19.25,74794.3,2.65,-29.13,-29.45,0,*70
1506528007.6,48255,19.25,74790.8,2.65,-29.13,-29.45,0,*71
1506528008.8,48256,19.25,74792.3,2.65,-29.07,-29.45,0,*77
1506528010.03,48257,19.25,74792.5,2.65,-29.13,-29.45,0,*73
1506528011.26,48258,19.25,74792.8,2.65,-29.07,-29.35,0,*7E
1506528012.51,48259,19.25,74792.3,2.65,-29.13,-29.35,0,*7A
1506528013.76,48260,19.25,74794.0,2.65,-29.13,-29.35,0,*70
1506528015.02,48261,19.25,74790.5,2.65,-28.91,-29.35,0,*7A
1506528016.29,48262,19.25,74794.8,2.63,-29.13,-29.39,0,*78
1506528017.56,48263,19.25,74790.3,2.63,-29.13,-29.39,0,*79
1506528018.82,48264,19.25,74794.8,2.63,-29.13,-29.39,0,*7E
1506528020.05,48265,19.25,74790.8,2.65,-29.07,-29.35,0,*70
1506528021.27,48266,19.25,74794.0,2.65,-28.97,-29.29,0,*76
1506528022.54,48267,19.25,74792.5,2.63,-29.13,-29.51,0,*73
1506528023.81,48268,19.25,74794.3,2.63,-29.13,-29.39,0,*72
1506528025.09,48269,19.25,74790.5,2.63,-29.17,-29.51,0,*79
1506528026.32,48270,19.25,74792.5,2.65,-29.07,-29.35,0,*74
1506528027.58,48271,19.25,74790.8,2.63,-29.13,-29.39,0,*7A
1506528028.85,48272,19.25,74792.5,2.63,-29.13,-29.39,0,*79
1506528030.12,48273,19.25,74788.8,2.63,-29.01,-29.39,0,*7B
1506528031.39,48274,19.25,74792.5,2.63,-29.17,-29.51,0,*75
1506528032.67,48275,19.25,74790.8,2.63,-29.17,-29.51,0,*74
1506528033.89,48276,19.25,74792.5,2.65,-29.13,-29.45,0,*70
1506528035.14,48277,19.25,74794.0,2.63,-29.17,-29.67,0,*73
1506528036.39,48278,19.25,74790.8,2.63,-29.17,-29.57,0,*7F
1506528037.65,48279,19.25,74794.0,2.59,-29.39,-29.61,0,*7E
1506528038.87,48280,19.25,74792.3,2.63,-29.23,-29.57,0,*7F
1506528040.09,48281,19.25,74790.5,2.61,-29.17,-29.67,0,*78
1506528041.32,48282,19.25,74788.8,2.61,-29.17,-29.67,0,*7B
1506528042.54,48283,19.25,74794.0,2.61,-29.17,-29.57,0,*79
1506528043.79,48284,19.25,74792.3,2.59,-29.23,-29.73,0,*74
1506528045.02,48285,19.25,74794.8,2.61,-29.17,-29.57,0,*7F
1506528046.24,48286,19.25,74794.3,2.59,-29.23,-29.61,0,*75
1506528047.49,48287,19.25,74788.8,2.61,-29.17,-29.51,0,*7B
1506528048.7,48288,19.25,74792.3,2.61,-29.23,-29.57,0,*75
1506528049.92,48289,19.25,74792.5,2.59,-29.23,-29.57,0,*7F
1506528051.17,48290,19.25,74794.0,2.59,-29.17,-29.45,0,*73
1506528052.37,48291,19.25,74790.8,2.61,-29.23,-29.57,0,*7D
1506528053.6,48292,19.25,74788.0,2.59,-29.23,-29.61,0,*70
1506528054.85,48293,19.25,74790.0,2.59,-29.17,-29.57,0,*73
1506528056.08,48294,19.25,74794.0,2.59,-29.23,-29.45,0,*70
1506528057.33,48295,19.25,74790.3,2.59,-29.17,-29.57,0,*75
1506528058.53,48296,19.25,74790.5,2.57,-29.23,-29.57,0,*7F
1506528059.73,48297,19.25,74792.0,2.57,-29.23,-29.45,0,*7D
1506528060.96,48298,19.25,74794.5,2.57,-29.17,-29.45,0,*75
1506528062.18,48299,19.25,74788.8,2.57,-29.07,-29.39,0,*7E
1506528063.4,48300,19.25,74790.5,2.57,-29.17,-29.45,0,*75
1506528064.64,48301,19.25,74790.8,2.53,-29.23,-29.51,0,*72
1506528065.84,48302,19.25,74790.8,2.57,-29.07,-29.45,0,*76
1506528067.09,48303,19.25,74792.8,2.53,-29.29,-29.51,0,*7A
1506528068.31,48304,19.25,74792.5,2.57,-29.17,-29.57,0,*72
1506528069.52,48305,19.25,74788.8,2.57,-29.07,-29.45,0,*71
1506528070.77,48306,19.25,74794.5,2.53,-29.29,-29.51,0,*7F
1506528071.97,48307,19.25,74790.0,2.57,-29.07,-29.45,0,*73
1506528073.17,48308,19.25,74790.3,2.57,-29.07,-29.45,0,*7C
1506528074.4,48309,19.25,74792.0,2.53,-29.13,-29.45,0,*7C
1506528075.63,48310,19.25,74790.0,2.53,-29.23,-29.51,0,*72
1506528076.83,48311,19.25,74788.0,2.53,-29.23,-29.45,0,*76
1506528078.1,48312,19.25,74790.3,2.59,-29.01,-29.39,0,*74
1506528079.32,48313,19.25,74792.0,2.57,-29.07,-29.29,0,*7C
1506528080.55,48314,19.25,74790.8,2.53,-29.07,-29.35,0,*72
1506528081.75,48315,19.25,74790.0,2.53,-29.07,-29.45,0,*74
1506528082.98,48316,19.25,74794.5,2.53,-29.07,-29.35,0,*70
1506528084.24,48317,19.25,74788.8,2.53,-29.13,-29.35,0,*74
1506528085.51,48318,19.25,74790.0,2.51,-29.17,-29.39,0,*71
1506528086.73,48319,19.25,74792.8,2.57,-29.07,-29.39,0,*77
1506528087.95,48320,19.25,74788.3,2.53,-29.07,-29.39,0,*79
1506528089.21,48321,19.25,74788.0,2.53,-29.13,-29.35,0,*71
1506528090.44,48322,19.25,74790.3,2.53,-29.07,-29.35,0,*77
1506528091.67,48323,19.25,74790.5,2.53,-28.97,-29.35,0,*7E
1506528092.89,48324,19.25,74788.8,2.57,-28.91,-29.23,0,*7C
1506528094.14,48325,19.25,74792.5,2.53,-29.13,-29.35,0,*75
1506528095.41,48326,19.25,74790.3,2.51,-29.13,-29.39,0,*78
1506528096.64,48327,19.25,74788.8,2.53,-29.23,-29.35,0,*74
1506528097.91,48328,19.25,74790.5,2.51,-29.13,-29.39,0,*76
1506528099.19,48329,19.25,74788.8,2.51,-29.01,-29.39,0,*74
1506528100.46,48330,19.25,74790.0,2.51,-29.01,-29.39,0,*7C
1506528101.73,48331,19.25,74792.5,2.51,-29.13,-29.39,0,*7E
1506528103.0,48332,19.25,74790.5,2.51,-29.17,-29.39,0,*79
1506528104.28,48333,19.25,74790.0,2.51,-29.01,-29.39,0,*7F
1506528105.55,48334,19.25,74788.3,2.51,-29.13,-29.39,0,*7B
1506528106.8,48335,19.25,74788.3,2.51,-28.97,-29.35,0,*7B
1506528108.05,48336,19.19,74786.3,2.49,-29.01,-29.29,0,*72
1506528109.29,48337,19.19,74786.8,2.49,-29.01,-29.29,0,*73
1506528110.57,48338,19.25,74788.8,2.51,-29.01,-29.35,0,*78
1506528111.79,48339,19.25,74790.0,2.49,-28.97,-29.29,0,*73
1506528113.03,48340,19.25,74788.8,2.51,-28.97,-29.29,0,*74
1506528114.28,48341,19.25,74788.0,2.51,-28.85,-29.29,0,*76
1506528115.5,48342,19.25,74786.8,2.49,-28.97,-29.17,0,*72
1506528116.78,48343,19.25,74788.3,2.51,-29.01,-29.17,0,*74
1506528118.0,48344,19.25,74788.8,2.49,-28.97,-29.17,0,*74
1506528119.24,48345,19.25,74788.0,2.51,-28.97,-29.29,0,*71
1506528120.48,48346,19.25,74790.3,2.51,-28.97,-29.29,0,*72
1506528121.73,48347,19.25,74790.5,2.51,-28.97,-29.13,0,*7A
1506528122.95,48348,19.25,74794.5,2.53,-28.91,-29.23,0,*72
1506528124.22,48349,19.25,74788.5,2.51,-29.01,-29.29,0,*73
1506528125.49,48350,19.25,74790.3,2.51,-29.13,-29.29,0,*78
1506528126.71,48351,19.25,74788.0,2.53,-28.97,-29.29,0,*76
1506528127.98,48352,19.25,74786.5,2.51,-29.01,-29.29,0,*79
1506528129.19,48353,19.25,74790.5,2.53,-28.97,-29.29,0,*74
1506528130.45,48354,19.19,74784.5,2.49,-29.13,-29.35,0,*78
1506528131.72,48355,19.25,74786.5,2.51,-29.17,-29.39,0,*78
1506528133.0,48356,19.25,74788.8,2.51,-29.13,-29.35,0,*73
1506528134.21,48357,19.25,74786.8,2.53,-28.97,-29.29,0,*70
1506528135.47,48358,19.25,74788.8,2.49,-29.13,-29.35,0,*74
1506528136.72,48359,19.25,74790.0,2.49,-29.17,-29.39,0,*7D
1506528137.99,48360,19.25,74788.8,2.51,-29.13,-29.39,0,*7A
1506528139.24,48361,19.19,74784.8,2.49,-29.13,-29.51,0,*7C
1506528140.49,48362,19.25,74786.5,2.49,-29.13,-29.51,0,*7F
1506528141.74,48363,19.25,74790.0,2.49,-29.13,-29.39,0,*70
1506528143.02,48364,19.25,74790.3,2.51,-29.13,-29.35,0,*72
1506528144.27,48365,19.25,74792.5,2.49,-29.01,-29.35,0,*79
1506528145.49,48366,19.25,74788.8,2.49,-28.97,-29.29,0,*79
1506528146.75,48367,19.25,74790.5,2.49,-29.01,-29.35,0,*7B
1506528148.01,48368,19.25,74790.5,2.49,-29.29,-29.51,0,*7C
1506528149.25,48369,19.25,74788.0,2.49,-29.13,-29.39,0,*7A
1506528150.51,48370,19.25,74790.3,2.49,-29.17,-29.51,0,*78
1506528151.76,48371,19.25,74786.0,2.49,-29.17,-29.51,0,*79
1506528153.02,48372,19.25,74790.0,2.49,-29.17,-29.51,0,*7A
1506528154.25,48373,19.25,74790.5,2.47,-29.23,-29.57,0,*74
1506528155.47,48374,19.25,74790.0,2.47,-29.23,-29.57,0,*73
1506528156.73,48375,19.25,74790.5,2.49,-29.17,-29.51,0,*7D
1506528157.98,48376,19.25,74786.5,2.49,-29.29,-29.39,0,*7D
1506528159.23,48377,19.25,74788.3,2.49,-29.29,-29.51,0,*72
1506528160.46,48378,19.25,74788.3,2.47,-29.23,-29.57,0,*7F
1506528161.71,48379,19.19,74784.3,2.47,-29.17,-29.45,0,*7A
1506528162.96,48380,19.25,74788.5,2.47,-29.17,-29.45,0,*7C
1506528164.2,48381,19.25,74788.0,2.49,-29.35,-29.57,0,*70
1506528165.43,48382,19.25,74788.8,2.45,-29.35,-29.57,0,*7F
1506528166.66,48383,19.25,74788.5,2.47,-29.23,-29.57,0,*7B
1506528167.89,48384,19.25,74790.3,2.47,-29.23,-29.57,0,*7C
1506528169.12,48385,19.25,74790.8,2.47,-29.23,-29.45,0,*7E
1506528170.34,48386,19.25,74788.3,2.47,-29.23,-29.45,0,*7D
1506528171.57,48387,19.25,74786.8,2.45,-29.17,-29.45,0,*79
1506528172.8,48388,19.25,74790.5,2.45,-29.17,-29.45,0,*76
1506528174.03,48389,19.19,74784.0,2.45,-29.17,-29.57,0,*74
1506528175.23,48390,19.25,74786.0,2.45,-29.23,-29.61,0,*7E
1506528176.47,48391,19.25,74790.5,2.45,-29.17,-29.39,0,*75
1506528177.73,48392,19.25,74790.0,2.47,-29.17,-29.57,0,*7C
1506528178.95,48393,19.25,74788.3,2.45,-29.17,-29.45,0,*7C
1506528180.18,48394,19.25,74790.0,2.45,-29.17,-29.45,0,*7B
1506528181.42,48395,19.25,74788.8,2.45,-29.35,-29.57,0,*79
1506528182.64,48396,19.25,74788.8,2.45,-29.17,-29.45,0,*79
1506528183.87,48397,19.25,74788.3,2.45,-29.17,-29.57,0,*7B
1506528185.07,48398,19.25,74790.8,2.45,-29.23,-29.45,0,*70
1506528186.28,48399,19.19,74788.5,2.45,-29.23,-29.45,0,*71
1506528187.56,48400,19.25,74788.8,2.43,-29.29,-29.51,0,*7F
1506528188.79,48401,19.25,74788.5,2.45,-29.23,-29.51,0,*72
1506528190.0,48402,19.25,74792.5,2.45,-29.23,-29.57,0,*77
1506528191.2,48403,19.25,74788.8,2.45,-29.23,-29.45,0,*75
1506528192.41,48404,19.19,74788.5,2.45,-29.23,-29.45,0,*72
1506528193.61,48405,19.25,74788.3,2.45,-29.23,-29.57,0,*70
1506528194.89,48406,19.25,74790.0,2.43,-29.29,-29.51,0,*79
1506528196.1,48407,19.19,74788.5,2.45,-29.23,-29.57,0,*72
1506528197.35,48408,19.25,74786.8,2.43,-29.29,-29.61,0,*74
1506528198.63,48409,19.25,74790.8,2.43,-29.29,-29.51,0,*76
1506528199.88,48410,19.25,74788.8,2.45,-29.17,-29.39,0,*7B
1506528201.09,48411,19.25,74790.8,2.41,-29.23,-29.45,0,*72
1506528202.33,48412,19.19,74786.8,2.41,-29.23,-29.51,0,*74
1506528203.58,48413,19.25,74790.3,2.43,-29.23,-29.39,0,*79
1506528204.81,48414,19.25,74788.3,2.43,-29.23,-29.45,0,*75
1506528206.04,48415,19.25,74790.8,2.41,-29.13,-29.45,0,*75
1506528207.3,48416,19.25,74792.5,2.43,-29.13,-29.45,0,*74
1506528208.53,48417,19.25,74792.0,2.41,-29.29,-29.61,0,*78
1506528209.76,48418,19.25,74794.3,2.41,-29.23,-29.51,0,*7E
1506528210.97,48419,19.25,74788.3,2.41,-29.23,-29.61,0,*7C
1506528212.25,48420,19.25,74792.8,2.43,-29.29,-29.51,0,*7D
1506528213.51,48421,19.25,74794.5,2.41,-29.29,-29.51,0,*7E
1506528214.74,48422,19.25,74790.5,2.41,-29.23,-29.51,0,*77
1506528216.0,48423,19.19,74786.3,2.41,-29.29,-29.51,0,*7C
1506528217.24,48424,19.19,74788.3,2.41,-29.23,-29.51,0,*71
1506528218.44,48425,19.25,74788.0,2.41,-29.23,-29.61,0,*73
1506528219.68,48426,19.25,74792.0,2.41,-29.23,-29.51,0,*73
1506528220.93,48427,19.25,74788.5,2.41,-29.29,-29.51,0,*78
1506528222.19,48428,19.25,74792.3,2.41,-29.29,-29.51,0,*77
1506528223.45,48429,19.19,74788.0,2.39,-29.35,-29.67,0,*71
1506528224.69,48430,19.19,74788.3,2.37,-29.35,-29.61,0,*71
1506528225.94,48431,19.25,74792.3,2.39,-29.29,-29.57,0,*76
1506528227.18,48432,19.25,74792.8,2.37,-29.39,-29.57,0,*7A
1506528228.43,48433,19.19,74790.8,2.39,-29.29,-29.67,0,*77
1506528229.69,48434,19.25,74792.3,2.39,-29.35,-29.67,0,*7D
1506528230.95,48435,19.25,74792.0,2.39,-29.35,-29.67,0,*7C
1506528232.21,48436,19.19,74788.8,2.39,-29.35,-29.67,0,*7F
1506528233.44,48437,19.25,74790.3,2.39,-29.45,-29.67,0,*79
1506528234.67,48438,19.25,74792.5,2.39,-29.45,-29.67,0,*76
1506528235.91,48439,19.25,74790.0,2.37,-29.39,-29.61,0,*74
1506528237.14,48440,19.19,74788.3,2.37,-29.51,-29.79,0,*7D
1506528238.4,48441,19.25,74790.8,2.37,-29.51,-29.73,0,*76
1506528239.66,48442,19.25,74790.0,2.37,-29.51,-29.73,0,*75
1506528240.92,48443,19.25,74790.5,2.37,-29.51,-29.73,0,*74
1506528242.18,48444,19.19,74790.3,2.39,-29.35,-29.57,0,*79
1506528243.44,48445,19.25,74794.3,2.37,-29.51,-29.73,0,*72
1506528244.68,48446,19.19,74788.3,2.37,-29.35,-29.61,0,*70
1506528245.91,48447,19.25,74790.0,2.37,-29.39,-29.61,0,*7D
1506528247.17,48448,19.19,74790.0,2.37,-29.39,-29.73,0,*71
1506528248.43,48449,19.25,74790.8,2.37,-29.39,-29.73,0,*70
1506528249.69,48450,19.25,74794.3,2.37,-29.39,-29.73,0,*78
1506528250.92,48451,19.19,74790.0,2.35,-29.35,-29.61,0,*74
1506528252.16,48452,19.25,74792.5,2.33,-29.45,-29.67,0,*70
1506528253.38,48453,19.25,74794.0,2.33,-29.45,-29.79,0,*7E
1506528254.64,48454,19.25,74792.8,2.37,-29.39,-29.73,0,*7C
1506528255.87,48455,19.25,74792.0,2.35,-29.35,-29.61,0,*70
1506528257.1,48456,19.25,74792.0,2.33,-29.45,-29.79,0,*7B
1506528258.33,48457,19.19,74790.3,2.33,-29.57,-29.79,0,*79
1506528259.59,48458,19.25,74794.3,2.33,-29.39,-29.67,0,*71
1506528260.82,48459,19.25,74794.3,2.33,-29.45,-29.79,0,*74
1506528262.08,48460,19.25,74794.5,2.33,-29.39,-29.67,0,*7A
1506528263.33,48461,19.25,74792.5,2.33,-29.39,-29.79,0,*74
1506528264.59,48462,19.25,74792.8,2.33,-29.39,-29.67,0,*78
1506528265.8,48463,19.25,74788.8,2.37,-29.45,-29.67,0,*76
1506528267.03,48464,19.19,74790.3,2.33,-29.45,-29.79,0,*7A
1506528268.29,48465,19.25,74790.3,2.33,-29.39,-29.67,0,*7F
1506528269.53,48466,19.19,74788.3,2.33,-29.45,-29.67,0,*77
1506528270.79,48467,19.25,74788.8,2.33,-29.39,-29.67,0,*7D
1506528272.05,48468,19.25,74792.3,2.33,-29.39,-29.67,0,*72
1506528273.28,48469,19.19,74790.3,2.29,-29.45,-29.67,0,*73
1506528274.53,48470,19.19,74790.0,2.33,-29.39,-29.61,0,*7D
1506528275.79,48471,19.25,74790.5,2.33,-29.29,-29.57,0,*78
1506528277.04,48472,19.19,74790.5,2.33,-29.29,-29.61,0,*7E
1506528278.29,48473,19.19,74788.5,2.29,-29.39,-29.61,0,*75
1506528279.54,48474,19.19,74788.8,2.29,-29.29,-29.61,0,*73
1506528280.77,48475,19.19,74788.3,2.27,-29.35,-29.67,0,*77
1506528282.01,48476,19.25,74788.5,2.27,-29.35,-29.61,0,*72
1506528283.23,48477,19.25,74790.0,2.27,-29.29,-29.61,0,*7E
1506528284.47,48478,19.19,74788.8,2.27,-29.35,-29.67,0,*7A
1506528285.7,48479,19.25,74790.0,2.27,-29.29,-29.61,0,*70
1506528286.92,48480,19.19,74790.3,2.27,-29.29,-29.61,0,*76
1506528288.16,48481,19.19,74788.5,2.27,-29.35,-29.67,0,*7C
1506528289.39,48482,19.25,74792.3,2.27,-29.29,-29.67,0,*72
1506528290.62,48483,19.25,74792.5,2.27,-29.17,-29.45,0,*7E
1506528291.85,48484,19.25,74792.5,2.27,-29.29,-29.45,0,*74
1506528293.1,48485,19.19,74790.0,2.27,-29.29,-29.51,0,*70
1506528294.36,48486,19.19,74790.5,2.27,-29.17,-29.51,0,*7E
1506528295.61,48487,19.19,74790.5,2.29,-29.13,-29.45,0,*70
1506528296.84,48488,19.25,74790.8,2.27,-29.13,-29.45,0,*71
1506528298.09,48489,19.19,74788.3,2.27,-29.17,-29.51,0,*71
1506528299.32,48490,19.25,74794.3,2.27,-29.13,-29.45,0,*78
1506528300.55,48491,19.25,74794.3,2.27,-29.13,-29.45,0,*79
1506528301.8,48492,19.25,74792.8,2.27,-29.13,-29.51,0,*7F
1506528303.05,48493,19.25,74794.8,2.25,-29.13,-29.45,0,*79
1506528304.28,48494,19.25,74792.8,2.27,-29.17,-29.45,0,*78
1506528305.51,48495,19.19,74792.5,2.27,-29.17,-29.45,0,*79
1506528306.76,48496,19.25,74792.5,2.25,-29.13,-29.45,0,*7C
1506528308.04,48497,19.25,74792.8,2.25,-29.17,-29.51,0,*7C
1506528309.27,48498,19.19,74792.8,2.27,-29.17,-29.45,0,*74
1506528310.53,48499,19.25,74792.0,2.25,-29.13,-29.45,0,*73
1506528311.81,48500,19.19,74790.5,2.25,-29.29,-29.51,0,*7E
1506528313.09,48501,19.25,74794.5,2.25,-29.29,-29.51,0,*7F
1506528314.37,48502,19.19,74792.3,2.25,-29.29,-29.51,0,*7C
1506528315.65,48503,19.19,74792.8,2.25,-29.29,-29.51,0,*7D
1506528316.92,48504,19.19,74788.8,2.25,-29.29,-29.51,0,*7A
1506528318.18,48505,19.25,74794.0,2.25,-29.17,-29.45,0,*73
1506528319.38,48506,19.19,74790.8,2.23,-29.23,-29.57,0,*72
1506528320.66,48507,19.19,74790.8,2.25,-29.29,-29.51,0,*79
1506528321.94,48508,19.19,74792.3,2.25,-29.17,-29.51,0,*7B
1506528323.18,48509,19.19,74788.8,2.23,-29.35,-29.57,0,*7A
1506528324.41,48510,19.19,74790.8,2.23,-29.23,-29.51,0,*73
1506528325.63,48511,19.19,74792.8,2.23,-29.17,-29.57,0,*73
1506528326.84,48512,19.19,74790.3,2.23,-29.23,-29.57,0,*77
1506528328.09,48513,19.19,74792.8,2.25,-29.13,-29.45,0,*70
1506528329.34,48514,19.19,74790.3,2.25,-29.17,-29.61,0,*75
1506528330.57,48515,19.19,74792.3,2.23,-29.23,-29.51,0,*76
1506528331.85,48516,19.19,74788.8,2.21,-29.17,-29.51,0,*70
1506528333.08,48517,19.19,74794.3,2.21,-29.23,-29.57,0,*70
1506528334.37,48518,19.19,74792.0,2.21,-29.17,-29.51,0,*7E
1506528335.6,48519,19.19,74790.5,2.23,-29.07,-29.51,0,*7C
1506528336.83,48520,19.19,74792.3,2.23,-29.07,-29.51,0,*76
1506528338.06,48521,19.19,74788.8,2.21,-29.23,-29.57,0,*75
1506528339.34,48522,19.19,74792.0,2.21,-29.17,-29.51,0,*77
1506528340.58,48523,19.19,74788.8,2.21,-29.23,-29.57,0,*77
1506528341.86,48524,19.19,74790.8,2.21,-29.01,-29.51,0,*76
1506528343.06,48525,19.19,74788.8,2.19,-29.23,-29.57,0,*7A
1506528344.32,48526,19.19,74790.3,2.21,-29.07,-29.51,0,*72
1506528345.61,48527,19.19,74788.8,2.21,-29.17,-29.51,0,*72
1506528346.86,48528,19.19,74788.3,2.21,-29.07,-29.39,0,*72
1506528348.11,48529,19.19,74790.5,2.21,-29.07,-29.39,0,*73
1506528349.39,48530,19.19,74792.3,2.21,-29.01,-29.39,0,*7D
1506528350.59,48531,19.19,74788.8,2.19,-29.07,-29.45,0,*7A
1506528351.87,48532,19.25,74794.3,2.21,-29.17,-29.39,0,*78
1506528353.15,48533,19.19,74790.3,2.21,-29.01,-29.39,0,*7E
1506528354.4,48534,19.19,74792.3,2.21,-29.07,-29.39,0,*7F
1506528355.62,48535,19.19,74792.3,2.19,-29.07,-29.39,0,*75
1506528356.85,48536,19.19,74792.8,2.19,-29.13,-29.45,0,*78
1506528358.07,48537,19.19,74790.5,2.19,-29.13,-29.57,0,*7A
1506528359.27,48538,19.19,74794.0,2.19,-29.23,-29.61,0,*73
1506528360.5,48539,19.19,74794.5,2.23,-29.13,-29.57,0,*7D
1506528361.7,48540,19.19,74792.3,2.19,-29.23,-29.57,0,*79
1506528362.91,48541,19.19,74792.8,2.19,-29.07,-29.57,0,*7E
1506528364.13,48542,19.19,74794.5,2.19,-29.13,-29.45,0,*7B
1506528365.36,48543,19.19,74794.8,2.19,-29.17,-29.45,0,*7E
1506528366.58,48544,19.19,74790.8,2.19,-29.13,-29.57,0,*7E
1506528367.79,48545,19.19,74788.8,2.19,-29.23,-29.57,0,*7C
1506528368.99,48546,19.19,74790.8,2.19,-29.23,-29.57,0,*7F
1506528370.22,48547,19.19,74792.8,2.19,-29.13,-29.57,0,*7D
1506528371.42,48548,19.19,74794.5,2.19,-29.23,-29.57,0,*71
1506528372.62,48549,19.19,74792.8,2.19,-29.23,-29.57,0,*70
1506528373.85,48550,19.25,74794.5,2.19,-29.29,-29.57,0,*72
1506528375.05,48551,19.19,74794.0,2.19,-29.07,-29.57,0,*7F
1506528376.28,48552,19.19,74788.0,2.19,-29.29,-29.61,0,*75
1506528377.55,48553,19.19,74790.5,2.21,-29.17,-29.39,0,*7F
1506528378.84,48554,19.19,74788.0,2.21,-29.17,-29.51,0,*76
1506528380.12,48555,19.19,74792.3,2.21,-29.17,-29.51,0,*77
1506528381.32,48556,19.19,74788.8,2.19,-29.23,-29.57,0,*7E
1506528382.57,48557,19.19,74792.8,2.17,-29.29,-29.61,0,*7E
1506528383.8,48558,19.19,74788.0,2.15,-29.35,-29.61,0,*7E
1506528385.05,48559,19.19,74788.5,2.17,-29.29,-29.61,0,*70
1506528386.3,48560,19.19,74792.3,2.17,-29.17,-29.61,0,*77
1506528387.55,48561,19.19,74792.5,2.17,-29.13,-29.61,0,*72
1506528388.8,48562,19.19,74794.3,2.17,-29.13,-29.61,0,*71
1506528390.08,48563,19.19,74794.5,2.17,-29.17,-29.51,0,*77
1506528391.36,48564,19.19,74792.0,2.17,-29.13,-29.51,0,*74
1506528392.59,48565,19.19,74790.5,2.19,-29.13,-29.45,0,*7E
1506528393.81,48566,19.19,74794.5,2.19,-29.13,-29.45,0,*7D
1506528395.04,48567,19.19,74788.3,2.19,-29.13,-29.45,0,*7C
1506528396.29,48568,19.25,74796.0,2.17,-29.17,-29.61,0,*7F
1506528397.54,48569,19.19,74790.5,2.17,-29.29,-29.61,0,*73
1506528398.76,48570,19.19,74790.5,2.15,-29.17,-29.61,0,*74
1506528399.98,48571,19.19,74792.8,2.15,-29.17,-29.61,0,*75
1506528401.21,48572,19.19,74788.8,2.19,-29.07,-29.39,0,*76
1506528402.49,48573,19.19,74790.0,2.17,-29.35,-29.51,0,*76
1506528403.72,48574,19.19,74792.8,2.19,-29.13,-29.45,0,*7E
1506528405.01,48575,19.19,74788.3,2.17,-29.35,-29.51,0,*70
1506528406.23,48576,19.19,74790.5,2.19,-29.13,-29.45,0,*7C
1506528407.48,48577,19.19,74790.0,2.15,-29.17,-29.51,0,*70
1506528408.71,48578,19.19,74792.5,2.15,-29.29,-29.67,0,*77
1506528409.96,48579,19.19,74790.0,2.17,-29.29,-29.61,0,*72
1506528411.21,48580,19.19,74792.5,2.17,-29.17,-29.61,0,*79
1506528412.47,48581,19.19,74792.8,2.17,-29.29,-29.61,0,*75
1506528413.71,48582,19.19,74794.8,2.17,-29.29,-29.61,0,*76
1506528414.94,48583,19.19,74790.0,2.15,-29.17,-29.61,0,*78
1506528416.16,48584,19.25,74792.3,2.15,-29.29,-29.61,0,*72
1506528417.38,48585,19.19,74788.0,2.15,-29.17,-29.61,0,*7E
1506528418.6,48586,19.19,74794.5,2.15,-29.17,-29.61,0,*7D
1506528419.83,48587,19.25,74794.0,2.15,-29.17,-29.61,0,*7C
1506528421.08,48588,19.19,74794.5,2.15,-29.17,-29.51,0,*70
1506528422.34,48589,19.19,74788.5,2.13,-29.35,-29.57,0,*71
1506528423.57,48590,19.19,74792.8,2.15,-29.13,-29.45,0,*78
1506528424.82,48591,19.25,74794.5,2.15,-29.13,-29.51,0,*7C
1506528426.04,48592,19.19,74794.8,2.15,-29.17,-29.45,0,*7E
1506528427.33,48593,19.25,74796.3,2.17,-29.17,-29.51,0,*78
1506528428.55,48594,19.19,74788.5,2.15,-29.13,-29.45,0,*7C
1506528429.83,48595,19.25,74792.3,2.13,-29.01,-29.51,0,*7D
1506528431.11,48596,19.19,74788.5,2.13,-29.17,-29.51,0,*79
1506528432.37,48597,19.19,74790.8,2.13,-29.17,-29.57,0,*7E
1506528433.57,48598,19.19,74792.3,2.11,-29.23,-29.57,0,*74
1506528434.85,48599,19.19,74786.5,2.13,-29.17,-29.51,0,*76
1506528436.13,48600,19.19,74790.8,2.13,-29.17,-29.51,0,*75
1506528437.36,48601,19.19,74788.3,2.13,-29.07,-29.57,0,*73
1506528438.59,48602,19.19,74788.0,2.13,-29.07,-29.57,0,*70
1506528439.87,48603,19.19,74788.3,2.13,-29.01,-29.51,0,*71
1506528441.13,48604,19.19,74790.3,2.11,-29.01,-29.39,0,*7A
1506528442.41,48605,19.19,74790.0,2.13,-29.01,-29.35,0,*75
1506528443.64,48606,19.19,74790.5,2.13,-29.07,-29.57,0,*74
1506528444.92,48607,19.19,74790.0,2.13,-29.17,-29.51,0,*72
1506528446.18,48608,19.19,74788.8,2.13,-29.07,-29.51,0,*7C
1506528447.43,48609,19.19,74788.5,2.13,-29.07,-29.51,0,*7D
1506528448.72,48610,19.19,74790.5,2.13,-29.01,-29.51,0,*73
1506528450.0,48611,19.19,74790.8,2.13,-29.01,-29.51,0,*72
1506528451.23,48612,19.19,74790.5,2.11,-29.07,-29.51,0,*75
1506528452.49,48613,19.19,74790.0,2.13,-29.07,-29.51,0,*76
1506528453.77,48614,19.19,74788.3,2.13,-29.01,-29.51,0,*77
1506528455.05,48615,19.19,74790.3,2.13,-29.01,-29.51,0,*76
1506528456.3,48616,19.19,74790.5,2.11,-29.01,-29.39,0,*79
1506528457.56,48617,19.19,74792.8,2.11,-29.01,-29.39,0,*78
1506528458.81,48618,19.19,74790.5,2.13,-29.07,-29.39,0,*73
1506528460.06,48619,19.19,74790.5,2.13,-29.07,-29.51,0,*7C
1506528461.32,48620,19.19,74790.8,2.11,-29.01,-29.35,0,*70
1506528462.55,48621,19.19,74790.5,2.11,-29.07,-29.39,0,*7B
1506528463.83,48622,19.19,74788.0,2.13,-29.01,-29.39,0,*7C
1506528465.07,48623,19.19,74790.5,2.13,-29.07,-29.39,0,*7B
1506528466.33,48624,19.19,74790.3,2.11,-29.01,-29.39,0,*78
1506528467.56,48625,19.19,74792.3,2.11,-29.07,-29.51,0,*71
1506528468.81,48626,19.19,74788.3,2.11,-29.01,-29.39,0,*7A
1506528470.06,48627,19.19,74792.0,2.13,-29.07,-29.39,0,*7F
1506528471.29,48628,19.19,74792.5,2.11,-29.07,-29.39,0,*72
1506528472.54,48629,19.25,74794.5,2.13,-29.07,-29.39,0,*71
1506528473.8,48630,19.19,74790.3,2.13,-29.07,-29.51,0,*77
1506528475.05,48631,19.19,74792.0,2.13,-29.07,-29.39,0,*78
1506528476.31,48632,19.19,74790.0,2.11,-29.01,-29.35,0,*73
1506528477.59,48633,19.19,74790.8,2.13,-29.01,-29.35,0,*70
1506528478.84,48634,19.19,74790.8,2.13,-28.91,-29.23,0,*78
1506528480.09,48635,19.19,74792.3,2.13,-29.01,-29.23,0,*71
1506528481.35,48636,19.19,74790.3,2.11,-29.01,-29.51,0,*75
1506528482.61,48637,19.19,74790.3,2.11,-29.01,-29.51,0,*74
1506528483.87,48638,19.19,74788.5,2.11,-28.91,-29.35,0,*71
1506528485.12,48639,19.19,74790.3,2.13,-29.07,-29.51,0,*7E
1506528486.38,48640,19.19,74790.8,2.11,-29.01,-29.35,0,*76
1506528487.64,48641,19.19,74792.3,2.13,-29.07,-29.51,0,*71
1506528488.84,48642,19.19,74792.3,2.11,-29.07,-29.57,0,*76
1506528490.1,48643,19.19,74790.8,2.11,-29.01,-29.51,0,*77
1506528491.33,48644,19.19,74794.5,2.11,-29.17,-29.57,0,*71
1506528492.57,48645,19.19,74788.8,2.11,-29.17,-29.57,0,*70
1506528493.82,48646,19.19,74794.0,2.13,-29.17,-29.57,0,*71
1506528495.03,48647,19.19,74792.5,2.11,-29.07,-29.57,0,*73
1506528496.25,48648,19.19,74788.5,2.11,-29.07,-29.39,0,*74
1506528497.46,48649,19.19,74792.8,2.11,-29.07,-29.57,0,*7D
1506528498.68,48650,19.19,74790.5,2.11,-29.07,-29.39,0,*7D
1506528499.94,48651,19.19,74794.0,2.11,-29.01,-29.51,0,*74
1506528501.2,48652,19.19,74794.8,2.11,-29.01,-29.35,0,*75
1506528502.44,48653,19.19,74792.5,2.11,-29.07,-29.51,0,*70
1506528503.67,48654,19.19,74790.8,2.11,-29.07,-29.51,0,*77
1506528504.9,48655,19.19,74790.0,2.11,-29.07,-29.39,0,*78